Carrollton, GA

9:53 PM EST on November 21, 2019 (GMT -0500)
West Georgia Regional-Gray

Weather History for KCTJ - September, 2019

Change the Weather History Date:

Monday, September 2, 2019

  Actual Average Record
Temperature  
Mean Temperature 78 °F -  
Max Temperature 89 °F 85 °F 98 °F (1951)
Min Temperature 66 °F 64 °F 50 °F (1954)
Cooling Degree Days 12    
Growing Degree Days 28 (Base 50)    
Moisture  
Dew Point 65 °F    
Average Humidity 71    
Maximum Humidity 96    
Minimum Humidity 40    
Precipitation  
Precipitation 0.00 in - - ()
Sea Level Pressure  
Sea Level Pressure 30.11 in    
Wind  
Wind Speed 2 mph (NE)    
Max Wind Speed 12 mph    
Max Gust Speed 20 mph    
Visibility 10 miles    
Events      
Averages and records for this station are not official NWS values.
T = Trace of Precipitation, MM = Missing Value Source: NWS Daily Summary

Daily Weather History Graph

Daily Weather History Graph

Search for Another Location

Airport or City:

Astronomy

Sep. 02, 2019 Rise Set
Actual Time 7:15 AM EDT 8:05 PM EDT
Civil Twilight 6:49 AM EDT 8:30 PM EDT
Nautical Twilight 6:19 AM EDT 9:00 PM EDT
Astronomical Twilight 5:48 AM EDT 9:30 PM EDT
Moon 10:47 AM EDT (9/2) 10:37 PM EDT (9/2)
Length of Visible Light 13h 40m
Length of Day
12h 49m
Waxing Crescent, 15% of the Moon is Illuminated
Sep 2
Waxing Crescent
Sep 5
First Quarter
Sep 14
Full
Sep 21
Last Quarter
Sep 28
New

Hourly Weather History & Observations

Time (EDT) Temp. Heat Index Dew Point Humidity Pressure Visibility Wind Dir Wind Speed Gust Speed Precip Events Conditions
12:15 AM 70.0 °F - 68.4 °F 95% 30.14 in 10.0 mi Calm Calm - N/A   Clear
12:35 AM 69.4 °F - 68.2 °F 96% 30.14 in 10.0 mi Calm Calm - N/A   Clear
12:55 AM 69.3 °F - 67.8 °F 95% 30.13 in 10.0 mi Calm Calm - N/A   Clear
1:15 AM 70.0 °F - 68.0 °F 93% 30.13 in 10.0 mi Calm Calm - N/A   Clear
1:35 AM 70.2 °F - 67.5 °F 91% 30.13 in 10.0 mi Calm Calm - N/A   Clear
1:55 AM 70.5 °F - 67.1 °F 89% 30.13 in 10.0 mi NNE 3.5 mph - N/A   Clear
2:15 AM 69.8 °F - 66.6 °F 89% 30.13 in 10.0 mi Calm Calm - N/A   Clear
2:35 AM 69.8 °F - 66.2 °F 88% 30.13 in 10.0 mi Calm Calm - N/A   Clear
2:55 AM 69.4 °F - 66.0 °F 89% 30.12 in 10.0 mi Calm Calm - N/A   Clear
3:15 AM 68.9 °F - 65.7 °F 89% 30.12 in 10.0 mi Calm Calm - N/A   Clear
3:35 AM 68.9 °F - 65.3 °F 88% 30.12 in 10.0 mi Calm Calm - N/A   Clear
3:55 AM 68.7 °F - 65.3 °F 89% 30.11 in 10.0 mi Calm Calm - N/A   Clear
4:15 AM 68.0 °F - 64.8 °F 89% 30.11 in 10.0 mi Calm Calm - N/A   Clear
4:35 AM 68.0 °F - 64.8 °F 89% 30.12 in 10.0 mi Calm Calm - N/A   Clear
4:55 AM 67.8 °F - 64.6 °F 89% 30.11 in 10.0 mi Calm Calm - N/A   Clear
5:15 AM 66.7 °F - 64.4 °F 92% 30.12 in 10.0 mi Calm Calm - N/A   Clear
5:35 AM 66.7 °F - 64.2 °F 92% 30.12 in 10.0 mi Calm Calm - N/A   Clear
5:55 AM 67.1 °F - 64.0 °F 90% 30.13 in 10.0 mi Calm Calm - N/A   Clear
6:35 AM 66.6 °F - 63.9 °F 91% 30.13 in 10.0 mi Calm Calm - N/A   Clear
6:55 AM 66.0 °F - 63.7 °F 92% 30.14 in 10.0 mi Calm Calm - N/A   Clear
7:15 AM 66.2 °F - 63.7 °F 92% 30.14 in 10.0 mi Calm Calm - N/A   Clear
7:35 AM 66.4 °F - 63.7 °F 91% 30.15 in 10.0 mi Calm Calm - N/A   Clear
7:55 AM 66.7 °F - 64.0 °F 91% 30.15 in 10.0 mi Calm Calm - N/A   Clear
8:15 AM 68.2 °F - 64.8 °F 89% 30.15 in 10.0 mi NE 3.5 mph - N/A   Clear
8:35 AM 69.6 °F - 65.3 °F 86% 30.16 in 10.0 mi NE 3.5 mph - N/A   Clear
8:55 AM 71.4 °F - 66.0 °F 83% 30.16 in 10.0 mi ENE 3.5 mph - N/A   Clear
9:15 AM 73.0 °F - 66.4 °F 80% 30.16 in 10.0 mi NE 5.8 mph - N/A   Clear
9:35 AM 74.1 °F - 66.7 °F 78% 30.16 in 10.0 mi ENE 4.6 mph - N/A   Clear
9:55 AM 75.4 °F - 66.9 °F 75% 30.16 in 10.0 mi ENE 4.6 mph - N/A   Clear
10:15 AM 76.5 °F - 66.9 °F 72% 30.16 in 10.0 mi ENE 6.9 mph - N/A   Clear
10:35 AM 78.1 °F - 66.9 °F 68% 30.16 in 10.0 mi East 8.1 mph - N/A   Clear
10:55 AM 79.0 °F - 66.9 °F 66% 30.16 in 10.0 mi NNE 6.9 mph - N/A   Clear
11:15 AM 79.9 °F - 66.7 °F 64% 30.16 in 10.0 mi East 3.5 mph - N/A   Clear
11:35 AM 81.3 °F 83.8 °F 67.1 °F 62% 30.16 in 10.0 mi ENE 6.9 mph - N/A   Clear
11:55 AM 81.7 °F 84.0 °F 66.7 °F 60% 30.15 in 10.0 mi North 4.6 mph - N/A   Clear
12:15 PM 82.9 °F 85.0 °F 66.0 °F 56% 30.15 in 10.0 mi NNE 8.1 mph - N/A   Clear
12:35 PM 83.8 °F 85.6 °F 64.9 °F 53% 30.14 in 10.0 mi North 8.1 mph - N/A   Clear
12:55 PM 84.4 °F 86.1 °F 64.9 °F 52% 30.13 in 10.0 mi NE 10.4 mph - N/A   Clear
1:15 PM 84.9 °F 86.1 °F 64.0 °F 49% 30.13 in 10.0 mi North 10.4 mph - N/A   Scattered Clouds
1:35 PM 85.5 °F 86.6 °F 63.9 °F 48% 30.13 in 10.0 mi ENE 9.2 mph - N/A   Clear
1:55 PM 85.5 °F 86.8 °F 64.0 °F 49% 30.12 in 10.0 mi NNE 10.4 mph - N/A   Scattered Clouds
2:15 PM 85.8 °F 87.4 °F 64.6 °F 49% 30.12 in 10.0 mi NNE 6.9 mph - N/A   Mostly Cloudy
2:35 PM 86.5 °F 87.8 °F 64.0 °F 47% 30.11 in 10.0 mi NE 8.1 mph 16.1 mph N/A   Scattered Clouds
2:55 PM 87.4 °F 88.8 °F 64.0 °F 46% 30.10 in 10.0 mi NE 9.2 mph - N/A   Clear
3:15 PM 87.6 °F 89.1 °F 64.4 °F 46% 30.08 in 10.0 mi NE 5.8 mph - N/A   Scattered Clouds
3:35 PM 87.6 °F 89.1 °F 64.2 °F 46% 30.08 in 10.0 mi ENE 8.1 mph 19.6 mph N/A   Scattered Clouds
3:55 PM 88.0 °F 88.7 °F 63.1 °F 43% 30.08 in 10.0 mi ENE 8.1 mph - N/A   Scattered Clouds
4:15 PM 88.0 °F 89.0 °F 63.5 °F 44% 30.07 in 10.0 mi NNE 6.9 mph 17.3 mph N/A   Scattered Clouds
4:35 PM 88.7 °F 89.8 °F 63.9 °F 43% 30.07 in 10.0 mi NE 11.5 mph - N/A   Mostly Cloudy
4:55 PM 88.9 °F 89.7 °F 63.3 °F 42% 30.06 in 10.0 mi ENE 6.9 mph - N/A   Scattered Clouds
5:15 PM 88.5 °F 89.2 °F 63.0 °F 42% 30.05 in 10.0 mi North 6.9 mph - N/A   Scattered Clouds
5:35 PM 89.1 °F 89.6 °F 62.8 °F 41% 30.05 in 10.0 mi NNE 6.9 mph - N/A   Clear
5:55 PM 88.9 °F 89.1 °F 61.7 °F 40% 30.05 in 10.0 mi NNE 5.8 mph - N/A   Clear
6:15 PM 89.1 °F 89.3 °F 61.7 °F 40% 30.05 in 10.0 mi North 6.9 mph - N/A   Clear
6:55 PM 87.4 °F 88.0 °F 62.4 °F 43% 30.05 in 10.0 mi North 4.6 mph - N/A   Clear
7:15 PM 86.5 °F 87.3 °F 62.8 °F 45% 30.05 in 10.0 mi Calm Calm - N/A   Clear
7:35 PM 84.9 °F 86.1 °F 63.9 °F 49% 30.05 in 10.0 mi Calm Calm - N/A   Clear
7:55 PM 81.5 °F 83.3 °F 65.1 °F 57% 30.05 in 10.0 mi Calm Calm - N/A   Clear
8:15 PM 78.3 °F - 66.0 °F 66% 30.06 in 10.0 mi Calm Calm - N/A   Clear
8:35 PM 76.1 °F - 66.4 °F 72% 30.06 in 10.0 mi Calm Calm - N/A   Clear
8:55 PM 75.6 °F - 66.0 °F 72% 30.05 in 10.0 mi Calm Calm - N/A   Clear
9:15 PM 73.9 °F - 66.2 °F 77% 30.06 in 10.0 mi Calm Calm - N/A   Clear
9:35 PM 73.8 °F - 66.0 °F 77% 30.06 in 10.0 mi Calm Calm - N/A   Clear
9:55 PM 72.9 °F - 66.2 °F 80% 30.07 in 10.0 mi Calm Calm - N/A   Clear
10:15 PM 72.1 °F - 66.2 °F 82% 30.07 in 10.0 mi Calm Calm - N/A   Clear
10:35 PM 72.3 °F - 66.0 °F 80% 30.07 in 10.0 mi Calm Calm - N/A   Clear
10:55 PM 72.3 °F - 65.8 °F 80% 30.07 in 10.0 mi Calm Calm - N/A   Clear
11:15 PM 71.1 °F - 66.2 °F 85% 30.07 in 10.0 mi Calm Calm - N/A   Clear
11:35 PM 71.1 °F - 66.0 °F 84% 30.07 in 10.0 mi Calm Calm - N/A   Clear
11:55 PM 70.9 °F - 66.0 °F 85% 30.07 in 10.0 mi Calm Calm - N/A   Clear